When you browse on this site, cookies collect data to enhance your experience and personalize the content and advertising you see.
Visit our Privacy Policy to learn more. By continuing to use the site, you agree to this use of cookies and data.

Stündliche Wetter Orange Walk

Heute, 18 September, Freitag

Zeit Temperatur Niederschläge Wind Luftdruck Luftfeuchtigkeit
00:00 +27°C° 0 mm 1 m/S 756 mmHg 95%
01:00 +25°C° 0 mm 0 m/S 755 mmHg 95%
02:00 +25°C° 0 mm 0 m/S 755 mmHg 95%
03:00 +25°C° 0 mm 0 m/S 755 mmHg 95%
04:00 +25°C° 0 mm 0 m/S 755 mmHg 95%
05:00 +25°C° 0 mm 0 m/S 755 mmHg 96%
06:00 +25°C° 0 mm 0 m/S 756 mmHg 95%
07:00 +27°C° 0 mm 0 m/S 756 mmHg 87%
08:00 +29°C° 0 mm 0 m/S 756 mmHg 79%
09:00 +31°C° 0 mm 0 m/S 756 mmHg 71%
10:00 +33°C° 0.8 mm 1 m/S 756 mmHg 72%
11:00 +33°C° 0.8 mm 1 m/S 756 mmHg 72%
12:00 +33°C° 0.8 mm 1 m/S 756 mmHg 72%
13:00 +34°C° 0.5 mm 2 m/S 755 mmHg 72%
14:00 +34°C° 0.5 mm 2 m/S 754 mmHg 73%
15:00 +34°C° 0.5 mm 3 m/S 753 mmHg 73%
16:00 +32°C° 0.1 mm 2 m/S 754 mmHg 77%
17:00 +30°C° 0.1 mm 2 m/S 754 mmHg 81%
18:00 +29°C° 0.1 mm 2 m/S 754 mmHg 85%
19:00 +29°C° 0.7 mm 2 m/S 755 mmHg 88%
20:00 +28°C° 0.7 mm 1 m/S 755 mmHg 91%
21:00 +25°C° 0.7 mm 0 m/S 756 mmHg 95%
22:00 +25°C° 1 mm 0 m/S 756 mmHg 95%
23:00 +25°C° 1 mm 0 m/S 756 mmHg 95%

Morgen, 19 September, Samstag

Zeit Temperatur Niederschläge Wind Luftdruck Luftfeuchtigkeit
00:00 +25°C° 1 mm 0 m/S 756 mmHg 95%
01:00 +24°C° 0.1 mm 0 m/S 756 mmHg 95%
02:00 +26°C° 0.1 mm 1 m/S 755 mmHg 95%
03:00 +26°C° 0.1 mm 1 m/S 755 mmHg 96%
04:00 +26°C° 0 mm 1 m/S 755 mmHg 96%
05:00 +24°C° 0 mm 0 m/S 755 mmHg 96%
06:00 +24°C° 0 mm 0 m/S 755 mmHg 96%
07:00 +25°C° 0.1 mm 0 m/S 756 mmHg 92%
08:00 +26°C° 0.1 mm 0 m/S 756 mmHg 88%
09:00 +27°C° 0.1 mm 0 m/S 757 mmHg 84%
10:00 +29°C° 0.4 mm 0 m/S 756 mmHg 76%
11:00 +33°C° 0.4 mm 1 m/S 756 mmHg 68%
12:00 +34°C° 0.4 mm 1 m/S 756 mmHg 59%
13:00 +34°C° 0.1 mm 1 m/S 755 mmHg 60%
14:00 +34°C° 0.1 mm 1 m/S 754 mmHg 60%
15:00 +34°C° 0.1 mm 1 m/S 753 mmHg 60%
16:00 +32°C° 0.1 mm 1 m/S 754 mmHg 68%
17:00 +31°C° 0.1 mm 1 m/S 754 mmHg 75%
18:00 +29°C° 0.1 mm 1 m/S 754 mmHg 82%
19:00 +28°C° 0 mm 1 m/S 755 mmHg 85%
20:00 +28°C° 0 mm 1 m/S 755 mmHg 87%
21:00 +27°C° 0 mm 1 m/S 756 mmHg 90%
22:00 +27°C° 0.4 mm 1 m/S 756 mmHg 92%
23:00 +25°C° 0.4 mm 0 m/S 756 mmHg 94%

übermorgen, 20 September, Sonntag

Zeit Temperatur Niederschläge Wind Luftdruck Luftfeuchtigkeit
00:00 +24°C° 0.4 mm 0 m/S 756 mmHg 95%
01:00 +24°C° 0.4 mm 0 m/S 755 mmHg 96%
02:00 +26°C° 0.4 mm 1 m/S 755 mmHg 97%
03:00 +26°C° 0.4 mm 1 m/S 755 mmHg 97%
04:00 +26°C° 0 mm 1 m/S 755 mmHg 97%
05:00 +24°C° 0 mm 0 m/S 755 mmHg 97%
06:00 +24°C° 0 mm 0 m/S 756 mmHg 98%
07:00 +25°C° 0.1 mm 0 m/S 756 mmHg 92%
08:00 +29°C° 0.1 mm 1 m/S 757 mmHg 86%
09:00 +31°C° 0.1 mm 1 m/S 757 mmHg 80%
10:00 +32°C° 0.6 mm 1 m/S 757 mmHg 78%
11:00 +32°C° 0.6 mm 1 m/S 756 mmHg 75%
12:00 +34°C° 0.6 mm 2 m/S 756 mmHg 73%
13:00 +32°C° 1.1 mm 2 m/S 755 mmHg 76%
14:00 +32°C° 1.1 mm 2 m/S 755 mmHg 79%
15:00 +31°C° 1.1 mm 2 m/S 754 mmHg 82%
16:00 +30°C° 0.6 mm 2 m/S 755 mmHg 85%
17:00 +29°C° 0.6 mm 2 m/S 755 mmHg 89%
18:00 +28°C° 0.6 mm 2 m/S 755 mmHg 93%
19:00 +28°C° 0.3 mm 1 m/S 756 mmHg 94%
20:00 +27°C° 0.3 mm 1 m/S 756 mmHg 95%
21:00 +27°C° 0.3 mm 1 m/S 757 mmHg 96%
22:00 +24°C° 0.2 mm 0 m/S 757 mmHg 96%
23:00 +24°C° 0.2 mm 0 m/S 757 mmHg 96%

21 September, Montag

Zeit Temperatur Niederschläge Wind Luftdruck Luftfeuchtigkeit
00:00 +24°C° 0.2 mm 0 m/S 757 mmHg 97%
01:00 +24°C° 0 mm 0 m/S 757 mmHg 96%
02:00 +24°C° 0 mm 0 m/S 756 mmHg 96%
03:00 +24°C° 0 mm 0 m/S 756 mmHg 96%
04:00 +24°C° 0 mm 0 m/S 756 mmHg 96%
05:00 +24°C° 0 mm 0 m/S 756 mmHg 95%
06:00 +23°C° 0 mm 0 m/S 756 mmHg 95%
07:00 +25°C° 0 mm 0 m/S 757 mmHg 86%
08:00 +28°C° 0 mm 0 m/S 757 mmHg 77%
09:00 +30°C° 0 mm 0 m/S 758 mmHg 68%
10:00 +31°C° 0 mm 0 m/S 757 mmHg 62%
11:00 +34°C° 0 mm 1 m/S 757 mmHg 56%
12:00 +35°C° 0 mm 1 m/S 757 mmHg 50%
13:00 +35°C° 0 mm 1 m/S 756 mmHg 52%
14:00 +34°C° 0 mm 1 m/S 755 mmHg 53%
15:00 +34°C° 0 mm 1 m/S 754 mmHg 55%
16:00 +32°C° 0 mm 1 m/S 755 mmHg 63%
17:00 +30°C° 0 mm 2 m/S 755 mmHg 70%
18:00 +29°C° 0 mm 2 m/S 755 mmHg 78%
19:00 +28°C° 0 mm 2 m/S 756 mmHg 80%
20:00 +27°C° 0 mm 1 m/S 756 mmHg 83%
21:00 +27°C° 0 mm 1 m/S 757 mmHg 86%
22:00 +26°C° 0 mm 1 m/S 757 mmHg 88%
23:00 +26°C° 0 mm 1 m/S 757 mmHg 90%

22 September, Dienstag

Zeit Temperatur Niederschläge Wind Luftdruck Luftfeuchtigkeit
00:00 +24°C° 0 mm 0 m/S 756 mmHg 91%
01:00 +26°C° 0 mm 1 m/S 756 mmHg 93%
02:00 +25°C° 0 mm 1 m/S 756 mmHg 94%
03:00 +25°C° 0 mm 1 m/S 756 mmHg 95%
04:00 +25°C° 0 mm 1 m/S 756 mmHg 95%
05:00 +25°C° 0 mm 1 m/S 756 mmHg 96%
06:00 +24°C° 0 mm 1 m/S 756 mmHg 96%
07:00 +27°C° 0 mm 1 m/S 757 mmHg 88%
08:00 +27°C° 0 mm 0 m/S 757 mmHg 79%
09:00 +30°C° 0 mm 0 m/S 757 mmHg 70%
10:00 +31°C° 0.1 mm 0 m/S 757 mmHg 67%
11:00 +33°C° 0.1 mm 1 m/S 757 mmHg 63%
12:00 +34°C° 0.1 mm 1 m/S 756 mmHg 59%
13:00 +34°C° 0.6 mm 1 m/S 756 mmHg 62%
14:00 +33°C° 0.6 mm 1 m/S 755 mmHg 65%
15:00 +34°C° 0.6 mm 2 m/S 754 mmHg 69%
16:00 +31°C° 0.2 mm 2 m/S 754 mmHg 75%
17:00 +30°C° 0.2 mm 2 m/S 754 mmHg 81%
18:00 +28°C° 0.2 mm 2 m/S 755 mmHg 88%
19:00 +28°C° 0 mm 2 m/S 755 mmHg 90%
20:00 +27°C° 0 mm 1 m/S 756 mmHg 92%
21:00 +27°C° 0 mm 1 m/S 756 mmHg 94%
22:00 +26°C° 0 mm 1 m/S 756 mmHg 94%
23:00 +26°C° 0 mm 1 m/S 756 mmHg 95%

23 September, Mittwoch

Zeit Temperatur Niederschläge Wind Luftdruck Luftfeuchtigkeit
00:00 +24°C° 0 mm 0 m/S 756 mmHg 96%
01:00 +26°C° 0.1 mm 1 m/S 756 mmHg 96%
02:00 +26°C° 0.1 mm 1 m/S 756 mmHg 96%
03:00 +25°C° 0.1 mm 1 m/S 756 mmHg 97%
04:00 +23°C° 0 mm 0 m/S 756 mmHg 97%
05:00 +23°C° 0 mm 0 m/S 756 mmHg 97%
06:00 +23°C° 0 mm 0 m/S 756 mmHg 97%
07:00 +25°C° 0 mm 0 m/S 756 mmHg 89%
08:00 +29°C° 0 mm 1 m/S 757 mmHg 81%
09:00 +31°C° 0 mm 1 m/S 757 mmHg 73%
10:00 +33°C° 0.1 mm 1 m/S 756 mmHg 68%
11:00 +34°C° 0.1 mm 1 m/S 756 mmHg 62%
12:00 +35°C° 0.1 mm 1 m/S 756 mmHg 57%
13:00 +35°C° 0.2 mm 1 m/S 755 mmHg 59%
14:00 +34°C° 0.2 mm 1 m/S 754 mmHg 62%
15:00 +34°C° 0.2 mm 2 m/S 754 mmHg 65%
16:00 +32°C° 0.1 mm 2 m/S 754 mmHg 71%
17:00 +30°C° 0.1 mm 2 m/S 754 mmHg 78%
18:00 +28°C° 0.1 mm 2 m/S 754 mmHg 85%
19:00 +28°C° 0 mm 2 m/S 755 mmHg 86%
20:00 +27°C° 0 mm 1 m/S 755 mmHg 88%
21:00 +26°C° 0 mm 1 m/S 756 mmHg 90%
22:00 +26°C° 0 mm 1 m/S 756 mmHg 91%
23:00 +26°C° 0 mm 1 m/S 756 mmHg 92%
Mehr zeigen